Weather History for Northolt, United Kingdom

Change the Weather History Date:

Saturday, February 16, 2013

  Actual Average Record
Temperature  
Mean Temperature 43 °F -  
Max Temperature 51 °F 48 °F 53 °F (1998)
Min Temperature 35 °F 37 °F 26 °F (2008)
Degree Days  
Heating Degree Days 22    
Moisture  
Dew Point 34 °F    
Average Humidity 70    
Maximum Humidity 93    
Minimum Humidity 31    
Precipitation  
Precipitation 0.00 in - - ()
Sea Level Pressure  
Sea Level Pressure 30.21 in    
Wind  
Wind Speed 2 mph ()    
Max Wind Speed 6 mph    
Max Gust Speed -    
Visibility 8.1 miles    
Events      
Averages and records for this station are not official NWS values.
T = Trace of Precipitation, MM = Missing Value Source: Averaged Metar Reports

Daily Weather History Graph

Daily Weather History Graph

Search for Another Location

Airport:

Trip Planner

Search our weather history database for the weather conditions in past years. The results will help you decide how hot, cold, wet, or windy it might be!

Date:

Astronomy

Feb. 16, 2013 Rise Set
Actual Time 7:13 AM GMT 5:18 PM GMT
Civil Twilight 6:39 AM GMT 5:53 PM GMT
Nautical Twilight 6:00 AM GMT 6:32 PM GMT
Astronomical Twilight 5:21 AM GMT 7:11 PM GMT
Moon 9:26 AM GMT (2/16) No Moon Set
Length of Visible Light 11h 14m
Length of Day
10h 05m
Waxing Crescent, 37% of the Moon is Illuminated
Feb 16
Waxing Crescent
Feb 17
First Quarter
Feb 25
Full
Mar 4
Last Quarter
Mar 11
New

Hourly Weather History & Observations

Time (GMT) Temp. Windchill Dew Point Humidity Pressure Visibility Wind Dir Wind Speed Gust Speed Precip Events Conditions
12:50 AM 41.0 °F - 35.6 °F 81% 30.18 in 6.2 mi South 1.2 mph - N/A   Overcast
1:50 AM 41.0 °F - 35.6 °F 81% 30.21 in 6.2 mi South 1.2 mph - N/A   Overcast
2:50 AM 40 °F - 35 °F 75% 30.21 in 14 mi SW 2.3 mph - -   Overcast
2:50 AM 41.0 °F - 35.6 °F 81% 30.18 in 6.2 mi SW 2.3 mph - N/A   Overcast
3:50 AM 39.2 °F - 35.6 °F 87% 30.18 in 6.2 mi West 1.2 mph - N/A   Overcast
4:50 AM 39.2 °F - 35.6 °F 87% 30.21 in 6.2 mi Calm Calm - N/A   Overcast
5:50 AM 38 °F - 34 °F 79% 30.22 in 15 mi Calm Calm - -   Mostly Cloudy
5:50 AM 37.4 °F - 33.8 °F 87% 30.21 in 6.2 mi Calm Calm - N/A   Mostly Cloudy
6:50 AM 37.4 °F - 33.8 °F 87% 30.21 in - SSW 1.2 mph - N/A   Clear
7:50 AM 35.6 °F - 33.8 °F 93% 30.21 in - Calm Calm - N/A   Clear
8:50 AM 39 °F - 36 °F 84% 30.25 in 11 mi Calm Calm - -   Mostly Cloudy
8:50 AM 39.2 °F - 35.6 °F 87% 30.21 in - Calm Calm - N/A   Clear
9:50 AM 42.8 °F - 37.4 °F 81% 30.24 in - South 1.2 mph - N/A   Clear
10:50 AM 46.4 °F 45.2 °F 37.4 °F 71% 30.24 in - SSW 3.5 mph - N/A   Clear
11:50 AM 49 °F - 33 °F 43% 30.25 in 16 mi SSW 3.5 mph - -   Mostly Cloudy
11:50 AM 48.2 °F - 33.8 °F 58% 30.24 in 6.2 mi SSW 3.5 mph - N/A   Mostly Cloudy
12:50 PM 50.0 °F - 33.8 °F 54% 30.21 in 6.2 mi SW 5.8 mph - N/A   Mostly Cloudy
1:50 PM 50.0 °F - 28.4 °F 43% 30.21 in 6.2 mi South 5.8 mph - N/A   Mostly Cloudy
2:50 PM 50 °F - 29 °F 31% 30.22 in 25 mi WSW 4.6 mph - -   Mostly Cloudy
2:50 PM 50.0 °F - 28.4 °F 43% 30.21 in 6.2 mi WSW 4.6 mph - N/A   Mostly Cloudy
3:50 PM 50.0 °F - 28.4 °F 43% 30.18 in 6.2 mi SSW 4.6 mph - N/A   Mostly Cloudy
4:50 PM 48.2 °F - 30.2 °F 50% 30.18 in 6.2 mi South 4.6 mph - N/A   Mostly Cloudy
5:50 PM 46 °F - 31 °F 44% 30.21 in 22 mi South 3.5 mph - -   Mostly Cloudy
5:50 PM 46.4 °F 45.2 °F 32.0 °F 57% 30.18 in - South 3.5 mph - N/A   Clear
6:50 PM 44.6 °F 43.1 °F 32.0 °F 61% 30.21 in - South 3.5 mph - N/A   Clear
7:50 PM 44.6 °F 42.2 °F 33.8 °F 66% 30.21 in - South 4.6 mph - N/A   Clear
8:50 PM 44 °F - 35 °F 62% 30.23 in 13 mi ESE 3.5 mph - -   Overcast
8:50 PM 44.6 °F 43.1 °F 35.6 °F 71% 30.21 in 6.2 mi ESE 3.5 mph - N/A   Overcast
9:50 PM 41.0 °F - 35.6 °F 81% 30.21 in 6.2 mi SE 2.3 mph - N/A   Overcast
10:50 PM 37.4 °F - 33.8 °F 87% 30.21 in 6.2 mi SE 1.2 mph - N/A   Scattered Clouds
11:50 PM 35 °F - 32 °F 84% 30.23 in 10 mi SE 1.2 mph - -  
11:50 PM 35.6 °F - 32.0 °F 87% 30.21 in 6.2 mi SE 1.2 mph - N/A   Unknown